Location: Strawberry
(45.6646°N, 111.9596°W)
Time: 18:16:40
(UTC+00:00)

SR - Pass Details

Date: 06 October 2022
Orbit: 577 x 874 km, 66.7° (Epoch: 05 December)

Event Time Altitude Azimuth Distance (km) Brightness Sun altitude
Rises 12:44:06 0° 322° (NW) 3,321 ? -9.3°
Reaches altitude 10° 12:46:42 10° 317° (NW) 2,341 ? -8.9°
Maximum altitude 12:51:48 47° 245° (WSW) 975 ? -8.0°
Drops below altitude 10° 12:56:27 10° 173° (S) 2,135 ? -7.1°
Sets 12:58:43 0° 167° (SSE) 2,999 ? -6.8°
